KI4SSU Weather Reports


Display with metric or nautical units.
time (UTC)temp
F
wind
direction
speed
MPH
gust
MPH
rain 1hr
in
rain 24hr
in
rain mn
in
humidity
%
barometer
mb
20260504002129 78 248 3.0 2.0 0.00 0.00 0.00
20260504001630 78 252 4.0 3.0 0.00 0.00 0.00
20260504001129 78 228 5.0 6.0 0.00 0.00 0.00
20260504000630 79 153 3.0 7.0 0.00 0.00 0.00
20260503235630 79 208 1.0 6.0 0.00 0.00 0.00
20260503235130 79 28 6.0 5.0 0.00 0.00 0.00
20260503234129 80 183 6.0 11.0 0.00 0.00 0.00
20260503233630 81 201 3.0 3.0 0.00 0.00 0.00
20260503233129 81 228 5.0 10.0 0.00 0.00 0.00
20260503232630 80 253 5.0 8.0 0.00 0.00 0.00
20260503232129 81 208 4.0 6.0 0.00 0.00 0.00
20260503231630 81 193 3.0 6.0 0.00 0.00 0.00
20260503231130 82 196 1.0 3.0 0.00 0.00 0.00
20260503230630 81 310 4.0 4.0 0.00 0.00 0.00
20260503230129 81 194 6.0 6.0 0.00 0.00 0.00
20260503224130 82 206 2.0 8.0 0.00 0.00 0.00
20260503222630 81 246 5.0 6.0 0.00 0.00 0.00
20260503222130 82 213 5.0 11.0 0.00 0.00 0.00
20260503221630 83 200 6.0 8.0 0.00 0.00 0.00
20260503221129 84 213 4.0 10.0 0.00 0.00 0.00
20260503220630 84 259 6.0 8.0 0.00 0.00 0.00
20260503215630 84 232 4.0 4.0 0.00 0.00 0.00
20260503215130 84 213 4.0 7.0 0.00 0.00 0.00
20260503214630 84 210 4.0 11.0 0.00 0.00 0.00
20260503214130 84 238 4.0 6.0 0.00 0.00 0.00
20260503213629 84 158 7.0 7.0 0.00 0.00 0.00
20260503213129 84 106 3.0 0.0 0.00 0.00 0.00
20260503212630 84 241 6.0 7.0 0.00 0.00 0.00
20260503212130 84 269 5.0 6.0 0.00 0.00 0.00
20260503211630 86 183 4.0 9.0 0.00 0.00 0.00
20260503211130 84 245 3.0 7.0 0.00 0.00 0.00
20260503210130 84 255 4.0 7.0 0.00 0.00 0.00
20260503205630 82 237 3.0 6.0 0.00 0.00 0.00
20260503204630 85 225 5.0 6.0 0.00 0.00 0.00
20260503203630 85 265 5.0 9.0 0.00 0.00 0.00
20260503202630 86 169 4.0 5.0 0.00 0.00 0.00
20260503202130 87 153 3.0 5.0 0.00 0.00 0.00
20260503201630 85 239 7.0 10.0 0.00 0.00 0.00
20260503201130 86 128 3.0 3.0 0.00 0.00 0.00
20260503200630 86 194 3.0 5.0 0.00 0.00 0.00
20260503200130 85 199 4.0 5.0 0.00 0.00 0.00
20260503195630 84 231 4.0 10.0 0.00 0.00 0.00
20260503195130 85 155 2.0 3.0 0.00 0.00 0.00
20260503194630 86 183 4.0 9.0 0.00 0.00 0.00
20260503194130 86 199 4.0 7.0 0.00 0.00 0.00
20260503193630 86 179 4.0 6.0 0.00 0.00 0.00
20260503193130 85 248 7.0 4.0 0.00 0.00 0.00
20260503192630 84 262 8.0 6.0 0.00 0.00 0.00
20260503192130 86 214 5.0 5.0 0.00 0.00 0.00
20260503191630 88 222 4.0 8.0 0.00 0.00 0.00
20260503191130 87 225 6.0 11.0 0.00 0.00 0.00
20260503190130 85 252 3.0 6.0 0.00 0.00 0.00
20260503185630 86 231 6.0 9.0 0.00 0.00 0.00
20260503185130 86 176 2.0 7.0 0.00 0.00 0.00
20260503184630 86 263 5.0 7.0 0.00 0.00 0.00
20260503184130 86 215 2.0 5.0 0.00 0.00 0.00
20260503183630 86 228 3.0 9.0 0.00 0.00 0.00
20260503183131 88 206 4.0 9.0 0.00 0.00 0.00
20260503182631 88 222 4.0 6.0 0.00 0.00 0.00
20260503182130 87 251 6.0 4.0 0.00 0.00 0.00
20260503181630 86 300 3.0 6.0 0.00 0.00 0.00
20260503181130 85 225 3.0 9.0 0.00 0.00 0.00
20260503180630 84 252 6.0 6.0 0.00 0.00 0.00
20260503175130 83 46 4.0 5.0 0.00 0.00 0.00
20260503174630 84 215 6.0 7.0 0.00 0.00 0.00
20260503173630 84 227 7.0 8.0 0.00 0.00 0.00
20260503173130 83 245 3.0 4.0 0.00 0.00 0.00
20260503172630 81 270 4.0 3.0 0.00 0.00 0.00
20260503172131 82 193 5.0 7.0 0.00 0.00 0.00
20260503171130 82 251 7.0 9.0 0.00 0.00 0.00
20260503170631 81 269 3.0 6.0 0.00 0.00 0.00
20260503170130 81 251 3.0 9.0 0.00 0.00 0.00
20260503160131 77 276 2.0 5.0 0.00 0.00 0.00
20260503150631 71 256 5.0 6.0 0.00 0.00 0.00
20260503150131 71 227 4.0 8.0 0.00 0.00 0.00
20260503140237 66 206 2.0 3.0 0.00 0.00 0.00
20260503140131 66 206 2.0 3.0 0.00 0.00 0.00
20260503131131 62 245 2.0 2.0 0.00 0.00 0.00
20260503130132 61 265 1.0 1.0 0.00 0.00 0.00
20260503120131 51 258 0.0 0.0 0.00 0.00 0.00
20260503110632 51 258 0.0 0.0 0.00 0.00 0.00
20260503100132 52 258 0.0 0.0 0.00 0.00 0.00
20260503090133 53 258 0.0 0.0 0.00 0.00 0.00
20260503081632 55 258 0.0 0.0 0.00 0.00 0.00
20260503081133 55 258 0.0 0.0 0.00 0.00 0.00
20260503080632 55 258 0.0 0.0 0.00 0.00 0.00
20260503080132 56 258 0.0 0.0 0.00 0.00 0.00
20260503072632 58 270 1.0 3.0 0.00 0.00 0.00
20260503072132 56 277 2.0 2.0 0.00 0.00 0.00
20260503071632 55 273 0.0 2.0 0.00 0.00 0.00
20260503070632 55 221 0.0 0.0 0.00 0.00 0.00
20260503060133 56 194 0.0 0.0 0.00 0.00 0.00
20260503054633 58 194 0.0 0.0 0.00 0.00 0.00
20260503054133 58 194 0.0 0.0 0.00 0.00 0.00
20260503053633 59 194 0.0 0.0 0.00 0.00 0.00
20260503053133 59 194 0.0 0.0 0.00 0.00 0.00
20260503052633 60 194 0.0 0.0 0.00 0.00 0.00
20260503052133 60 194 0.0 0.0 0.00 0.00 0.00
20260503051633 62 194 0.0 0.0 0.00 0.00 0.00
20260503051133 62 194 0.0 0.0 0.00 0.00 0.00
20260503050633 62 194 0.0 0.0 0.00 0.00 0.00
20260503045633 63 204 1.0 0.0 0.00 0.00 0.00
20260503045133 62 229 0.0 0.0 0.00 0.00 0.00
20260503044633 61 246 0.0 0.0 0.00 0.00 0.00
20260503044133 61 246 0.0 0.0 0.00 0.00 0.00
20260503043633 60 246 0.0 0.0 0.00 0.00 0.00
20260503043133 60 246 0.0 0.0 0.00 0.00 0.00
20260503042634 60 246 0.0 0.0 0.00 0.00 0.00
20260503042133 60 246 0.0 0.0 0.00 0.00 0.00
20260503041633 60 246 0.0 0.0 0.00 0.00 0.00
20260503040633 60 246 0.0 0.0 0.00 0.00 0.00
20260503040133 60 246 0.0 0.0 0.00 0.00 0.00
20260503035633 60 246 0.0 0.0 0.00 0.00 0.00
20260503035134 61 246 0.0 0.0 0.00 0.00 0.00
20260503034633 61 246 0.0 0.0 0.00 0.00 0.00
20260503034133 61 246 0.0 0.0 0.00 0.00 0.00
20260503033633 61 246 0.0 0.0 0.00 0.00 0.00
20260503033133 61 246 0.0 0.0 0.00 0.00 0.00
20260503032633 61 246 0.0 0.0 0.00 0.00 0.00
20260503032133 61 246 0.0 0.0 0.00 0.00 0.00
20260503031634 62 246 0.0 0.0 0.00 0.00 0.00
20260503031134 62 246 0.0 0.0 0.00 0.00 0.00
20260503030634 62 246 0.0 0.0 0.00 0.00 0.00
20260503030134 62 246 0.0 0.0 0.00 0.00 0.00
20260503025633 62 246 0.0 0.0 0.00 0.00 0.00
20260503025133 63 246 0.0 0.0 0.00 0.00 0.00
20260503024634 63 246 0.0 0.0 0.00 0.00 0.00
20260503024134 63 246 0.0 0.0 0.00 0.00 0.00
20260503023633 63 246 0.0 0.0 0.00 0.00 0.00
20260503023133 63 246 0.0 0.0 0.00 0.00 0.00
20260503022634 64 246 0.0 0.0 0.00 0.00 0.00
20260503022133 64 246 0.0 0.0 0.00 0.00 0.00
20260503021634 63 246 0.0 0.0 0.00 0.00 0.00
20260503021134 64 246 0.0 0.0 0.00 0.00 0.00
20260503020633 64 246 0.0 0.0 0.00 0.00 0.00
20260503015134 65 246 0.0 0.0 0.00 0.00 0.00
20260503014633 66 246 0.0 0.0 0.00 0.00 0.00
20260503013634 66 246 0.0 0.0 0.00 0.00 0.00
20260503013134 67 246 0.0 0.0 0.00 0.00 0.00
20260503012634 68 246 0.0 0.0 0.00 0.00 0.00
20260503011634 69 246 0.0 0.0 0.00 0.00 0.00
20260503011134 70 246 0.0 0.0 0.00 0.00 0.00
20260503010134 71 246 0.0 0.0 0.00 0.00 0.00
20260503005634 72 189 0.0 0.0 0.00 0.00 0.00
20260503005134 72 189 0.0 0.0 0.00 0.00 0.00
20260503004634 73 189 0.0 0.0 0.00 0.00 0.00
20260503004134 73 251 0.0 0.0 0.00 0.00 0.00
20260503003634 74 306 0.0 0.0 0.00 0.00 0.00
20260503002634 75 214 0.0 0.0 0.00 0.00 0.00